Nuuk, Greenland

8:25 PM -02 on April 25, 2018 (GMT -0200)
Nuuk

Weather History for BGGH - December, 2012

Change the Weather History Date:

Wednesday, December 5, 2012

  Actual Average Record
Temperature  
Mean Temperature 18 °F -  
Max Temperature 22 °F 26 °F 42 °F (2003)
Min Temperature 14 °F 16 °F 8 °F (2013)
Degree Days  
Heating Degree Days 47    
Moisture  
Dew Point 3 °F    
Average Humidity 50    
Maximum Humidity 63    
Minimum Humidity 28    
Precipitation  
Precipitation 0.00 in 0.07 in - ()
Sea Level Pressure  
Sea Level Pressure 29.79 in    
Wind  
Wind Speed 10 mph ()    
Max Wind Speed 16 mph    
Max Gust Speed -    
Visibility 6.2 miles    
Events Snow    
Averages and records for this station are not official NWS values.
T = Trace of Precipitation, MM = Missing Value Source: Averaged Metar Reports

Daily Weather History Graph

Daily Weather History Graph

Search for Another Location

Airport or City:

Astronomy

Dec. 05, 2012 Rise Set
Actual Time 9:57 AM -03 2:38 PM -03
Civil Twilight 8:43 AM -03 3:51 PM -03
Nautical Twilight 7:36 AM -03 4:58 PM -03
Astronomical Twilight 6:37 AM -03 5:57 PM -03
Moon 11:24 PM -03 (12/5) 12:24 PM -03 (12/5)
Length of Visible Light 7h 08m
Length of Day
4h 40m
Waning Gibbous, 61% of the Moon is Illuminated
Dec 5
Waning Gibbous
Dec 6
Last Quarter
Dec 13
New
Dec 20
First Quarter
Dec 28
Full

Hourly Weather History & Observations

Time (-03) Temp. Windchill Dew Point Humidity Pressure Visibility Wind Dir Wind Speed Gust Speed Precip Events Conditions
12:00 AM 21 °F - 6 °F 37% 29.86 in 31 mi SE 13.8 mph - -   Clear
12:20 AM 21.2 °F 10.9 °F 3.2 °F 46% 29.86 in 6.2 mi SE 9.2 mph - N/A   Unknown
12:50 AM 19.4 °F 9.5 °F 3.2 °F 49% 29.86 in 6.2 mi SE 8.1 mph - N/A   Unknown
1:20 AM 19.4 °F 8.6 °F 3.2 °F 49% 29.86 in 6.2 mi East 9.2 mph - N/A   Unknown
1:50 AM 21.2 °F 9.5 °F 1.4 °F 42% 29.86 in 6.2 mi SE 11.5 mph - N/A   Unknown
2:20 AM 19.4 °F 7.9 °F 1.4 °F 46% 29.86 in 6.2 mi ESE 10.4 mph - N/A   Partly Cloudy
2:50 AM 19.4 °F 9.5 °F 1.4 °F 46% 29.86 in 6.2 mi SE 8.1 mph - N/A   Scattered Clouds
3:00 AM 21 °F - 2 °F 28% 29.87 in 31 mi ESE 9.2 mph - -   Clear
3:20 AM 19.4 °F 6.0 °F 1.4 °F 46% 29.83 in 6.2 mi ESE 13.8 mph - N/A   Mostly Cloudy
3:50 AM 21.2 °F 8.9 °F 1.4 °F 42% 29.83 in 6.2 mi ESE 12.7 mph - N/A   Mostly Cloudy
4:20 AM 21.2 °F 11.7 °F 1.4 °F 42% 29.83 in 6.2 mi SE 8.1 mph - N/A   Mostly Cloudy
4:50 AM 21.2 °F 12.6 °F 1.4 °F 42% 29.83 in 6.2 mi SSE 6.9 mph - N/A   Mostly Cloudy
5:50 AM 21.2 °F 13.6 °F 1.4 °F 42% 29.83 in 6.2 mi SSE 5.8 mph - N/A   Mostly Cloudy
6:00 AM 21 °F - 3 °F 30% 29.83 in 31 mi SSE 15.0 mph - -   Scattered Clouds
6:50 AM 19.4 °F 7.2 °F 1.4 °F 46% 29.80 in 6.2 mi ESE 11.5 mph - N/A   Scattered Clouds
7:50 AM 19.4 °F 6.6 °F 3.2 °F 49% 29.80 in 6.2 mi ESE 12.7 mph - N/A   Mostly Cloudy
8:50 AM 19.4 °F 7.9 °F 5.0 °F 54% 29.80 in 6.2 mi East 10.4 mph - N/A   Mostly Cloudy
9:00 AM 21 °F - 6 °F 36% 29.80 in 31 mi SSE 11.5 mph - -  
9:50 AM 19.4 °F 9.5 °F 5.0 °F 54% 29.80 in 6.2 mi SE 8.1 mph - N/A   Mostly Cloudy
11:50 AM 19.4 °F 8.6 °F 8.6 °F 63% 29.80 in 6.2 mi East 9.2 mph - N/A   Mostly Cloudy
12:00 PM 20 °F - 9 °F 48% 29.78 in 31 mi ENE 10.4 mph - -   Scattered Clouds
12:50 PM 17.6 °F 5.7 °F 5.0 °F 58% 29.77 in 6.2 mi East 10.4 mph - N/A   Mostly Cloudy
1:50 PM 17.6 °F 5.0 °F 5.0 °F 58% 29.77 in 6.2 mi East 11.5 mph - N/A   Scattered Clouds
2:50 PM 17.6 °F 3.7 °F 5.0 °F 58% 29.77 in 6.2 mi East 13.8 mph - N/A Snow Low Drifting Snow
3:00 PM 18 °F - 4 °F 41% 29.75 in 31 mi ENE 15.0 mph - -  
3:50 PM 17.6 °F 4.3 °F 3.2 °F 53% 29.74 in 6.2 mi East 12.7 mph - N/A Snow Low Drifting Snow
4:50 PM 15.8 °F 2.1 °F 3.2 °F 58% 29.77 in 6.2 mi East 12.7 mph - N/A   Partly Cloudy
5:50 PM 15.8 °F 2.7 °F 3.2 °F 58% 29.77 in 6.2 mi East 11.5 mph - N/A   Unknown
6:00 PM 17 °F - 4 °F 41% 29.75 in 31 mi ENE 16.1 mph - -  
6:20 PM 15.8 °F 2.7 °F 3.2 °F 58% 29.77 in 6.2 mi East 11.5 mph - N/A   Unknown
6:50 PM 15.8 °F 3.4 °F 3.2 °F 58% 29.77 in 6.2 mi East 10.4 mph - N/A   Unknown
7:20 PM 15.8 °F 2.7 °F 3.2 °F 58% 29.74 in 6.2 mi East 11.5 mph - N/A   Unknown
7:50 PM 15.8 °F 2.1 °F 3.2 °F 58% 29.74 in 6.2 mi East 12.7 mph - N/A   Unknown
8:20 PM 15.8 °F 0.9 °F 3.2 °F 58% 29.74 in 6.2 mi ENE 15.0 mph - N/A   Unknown
8:50 PM 15.8 °F 1.4 °F 3.2 °F 58% 29.74 in 6.2 mi ENE 13.8 mph - N/A   Unknown
9:00 PM 17 °F - 4 °F 42% 29.76 in 31 mi NE 15.0 mph - -  
9:20 PM 15.8 °F 2.1 °F 3.2 °F 58% 29.74 in 6.2 mi East 12.7 mph - N/A   Unknown
9:50 PM 15.8 °F 2.1 °F 3.2 °F 58% 29.74 in 6.2 mi East 12.7 mph - N/A   Unknown
10:20 PM 14.0 °F -0.8 °F 3.2 °F 62% 29.74 in 6.2 mi ENE 13.8 mph - N/A   Unknown
10:50 PM 14.0 °F -0.8 °F 3.2 °F 62% 29.74 in 6.2 mi East 13.8 mph - N/A   Unknown
11:20 PM 14.0 °F -0.8 °F 3.2 °F 62% 29.71 in 6.2 mi East 13.8 mph - N/A   Unknown
11:50 PM 14.0 °F -0.8 °F 3.2 °F 62% 29.71 in 6.2 mi ENE 13.8 mph - N/A   Unknown